Weather in Aristovo

Russia / Ryazan Oblast     54°08′42″N   40°12′52″E
temp.,
°C
wind,
m/s
gust,
m/s
humid.,
%
clouds,
%
prec.,
mm/h
press.,
hPa
HPBL,
m
6 march, sat
sat600:00−11wnw238638 0.0 101521
03:00−12wnw238619 0.0 101621
06:00−13w12880 0.0 101521
09:00−10wnw239050 0.0 101796
12:00−7nw348951 0.0 1017293
15:00−6wnw358961 0.0 1015427
18:00−10w34919 0.0 101651
21:00−11w349113 0.0 101663
7 march, sun
sun700:00−13w449124 0.0 101563
03:00−14sw469012 0.0 101488
06:00−12ssw6119030 0.0 1010244
09:00−8sw9178665 0.0 1006696
12:00−5sw111792100 0.9 10021093
15:00−3sw111893100 2.8 9971229
18:00−2wsw101695100 1.4 9951068
21:00−8w4781100 2.5 998127
8 march, mon
mon800:00−10sw5118114 0.0 998184
03:00−7wsw7159056 0.1 998682
06:00−9wsw6138994 0.0 997375
09:00−6wsw7119496 0.4 998840
12:00−7w7109098 0.4 1001706
15:00−6wnw7108396 0.4 10041022
18:00−9w5118995 0.1 1006298
21:00−9wnw499488 0.2 1009302
9 march, tue
tue900:00−14nw349330 0.0 101147
03:00−16nw349615 0.0 101335
06:00−18nw339837 0.0 101428
09:00−16nnw349667 0.0 1016147
12:00−13nnw348994 0.0 1017359
15:00−12nw468886 0.0 1017537
18:00−15wnw449487 0.0 101881
21:00−17nw359686 0.0 102087
10 march, wed
wed1000:00−21nnw349749 0.0 102150
03:00−24nw349827 0.0 102232
06:00−26nw34973 0.0 102334
09:00−23nnw34962 0.0 1024158
12:00−19nw238754 0.0 1025356
15:00−16nnw248269 0.0 1025491
18:00−20nw239238 0.0 102520
21:00−23nne229319 0.0 102720